Weather History for La Grande, OR

Change the Weather History Date:

Tuesday, August 19, 2014

  Actual Average Record
Temperature  
Mean Temperature 70 °F -  
Max Temperature 89 °F 82 °F 101 °F (1967)
Min Temperature 51 °F 48 °F 37 °F (1996)
Cooling Degree Days 5    
Growing Degree Days 20 (Base 50)    
Moisture  
Dew Point 43 °F    
Average Humidity 39    
Maximum Humidity 62    
Minimum Humidity 22    
Precipitation  
Precipitation 0.00 in - - ()
Sea Level Pressure  
Sea Level Pressure 29.80 in    
Wind  
Wind Speed 4 mph (NW)    
Max Wind Speed 18 mph    
Max Gust Speed 23 mph    
Visibility 10 miles    
Events      
Averages and records for this station are not official NWS values.
T = Trace of Precipitation, MM = Missing Value Source: NWS Daily Summary

Daily Weather History Graph

Daily Weather History Graph

Search for Another Location

Airport:

Trip Planner

Search our weather history database for the weather conditions in past years. The results will help you decide how hot, cold, wet, or windy it might be!

Date:

Astronomy

Aug. 19, 2014 Rise Set
Actual Time 5:58 AM PDT 7:52 PM PDT
Civil Twilight 5:26 AM PDT 8:23 PM PDT
Nautical Twilight 4:47 AM PDT 9:02 PM PDT
Astronomical Twilight 4:04 AM PDT 9:44 PM PDT
Moon 12:49 AM PDT (8/19) 3:57 PM PDT (8/19)
Length of Visible Light 14h 57m
Length of Day
13h 54m
Waning Crescent, 28% of the Moon is Illuminated
Aug 19
Waning Crescent
Aug 25
New
Sep 2
First Quarter
Sep 8
Full
Sep 15
Last Quarter

Hourly Weather History & Observations

Time (PDT) Temp. Dew Point Humidity Pressure Visibility Wind Dir Wind Speed Gust Speed Precip Events Conditions
12:15 AM 68.0 °F 42.8 °F 40% 29.84 in 10.0 mi NW 4.6 mph - N/A   Clear
12:35 AM 66.2 °F 42.8 °F 43% 29.84 in 10.0 mi Calm Calm - N/A   Clear
12:55 AM 62.6 °F 41.0 °F 45% 29.84 in 10.0 mi Calm Calm - N/A   Clear
1:15 AM 60.8 °F 41.0 °F 48% 29.84 in 10.0 mi East 3.5 mph - N/A   Clear
1:35 AM 59.0 °F 41.0 °F 51% 29.84 in 10.0 mi Calm Calm - N/A   Clear
1:55 AM 59.0 °F 42.8 °F 55% 29.84 in 10.0 mi South 3.5 mph - N/A   Clear
2:15 AM 59.0 °F 42.8 °F 55% 29.84 in 10.0 mi Calm Calm - N/A   Clear
2:35 AM 57.2 °F 41.0 °F 55% 29.84 in 10.0 mi Calm Calm - N/A   Clear
2:55 AM 55.4 °F 39.2 °F 54% 29.84 in 10.0 mi Calm Calm - N/A   Clear
3:15 AM 59.0 °F 41.0 °F 51% 29.84 in 10.0 mi Calm Calm - N/A   Clear
3:35 AM 57.2 °F 39.2 °F 51% 29.84 in 10.0 mi ESE 4.6 mph - N/A   Clear
3:55 AM 55.4 °F 39.2 °F 54% 29.84 in 10.0 mi Calm Calm - N/A   Clear
4:15 AM 53.6 °F 39.2 °F 58% 29.84 in 10.0 mi Calm Calm - N/A   Clear
4:35 AM 53.6 °F 39.2 °F 58% 29.83 in 10.0 mi SSE 3.5 mph - N/A   Clear
4:55 AM 53.6 °F 39.2 °F 58% 29.83 in 10.0 mi Calm Calm - N/A   Clear
5:15 AM 53.6 °F 39.2 °F 58% 29.83 in 10.0 mi Calm Calm - N/A   Clear
5:35 AM 53.6 °F 39.2 °F 58% 29.84 in 10.0 mi Calm Calm - N/A   Clear
5:55 AM 53.6 °F 39.2 °F 58% 29.84 in 10.0 mi Calm Calm - N/A   Clear
6:15 AM 51.8 °F 37.4 °F 58% 29.84 in 10.0 mi Calm Calm - N/A   Clear
6:35 AM 51.8 °F 39.2 °F 62% 29.85 in 10.0 mi Calm Calm - N/A   Clear
6:55 AM 53.6 °F 41.0 °F 62% 29.85 in 10.0 mi SE 3.5 mph - N/A   Clear
7:15 AM 55.4 °F 41.0 °F 58% 29.85 in 10.0 mi Calm Calm - N/A   Clear
7:35 AM 57.2 °F 42.8 °F 59% 29.85 in 10.0 mi SSE 3.5 mph - N/A   Clear
7:55 AM 60.8 °F 44.6 °F 55% 29.86 in 10.0 mi Calm Calm - N/A   Clear
8:15 AM 64.4 °F 44.6 °F 49% 29.86 in 10.0 mi SE 3.5 mph - N/A   Clear
8:35 AM 64.4 °F 44.6 °F 49% 29.86 in 10.0 mi Calm Calm - N/A   Clear
8:55 AM 68.0 °F 46.4 °F 46% 29.85 in 10.0 mi Calm Calm - N/A   Clear
9:15 AM 69.8 °F 46.4 °F 43% 29.85 in 10.0 mi Calm Calm - N/A   Clear
9:35 AM 71.6 °F 46.4 °F 41% 29.84 in 10.0 mi Calm Calm - N/A   Clear
9:55 AM 73.4 °F 46.4 °F 38% 29.84 in 10.0 mi SSE 3.5 mph - N/A   Clear
10:15 AM 75.2 °F 48.2 °F 38% 29.83 in 10.0 mi ENE 3.5 mph - N/A   Clear
10:35 AM 75.2 °F 48.2 °F 38% 29.83 in 10.0 mi NNE 3.5 mph - N/A   Clear
10:55 AM 78.8 °F 48.2 °F 34% 29.83 in 10.0 mi Calm Calm - N/A   Clear
11:15 AM 82.4 °F 50.0 °F 32% 29.82 in 10.0 mi Calm Calm - N/A   Clear
11:35 AM 84.2 °F 48.2 °F 29% 29.81 in 10.0 mi NNW 4.6 mph - N/A   Clear
11:55 AM 84.2 °F 46.4 °F 27% 29.80 in 9.0 mi North 5.8 mph - N/A   Clear
12:15 PM 84.2 °F 46.4 °F 27% 29.79 in 10.0 mi Calm Calm - N/A   Clear
12:35 PM 87.8 °F 48.2 °F 25% 29.78 in 10.0 mi NNE 9.2 mph - N/A   Clear
12:55 PM 86.0 °F 46.4 °F 25% 29.78 in 10.0 mi NNE 10.4 mph - N/A   Clear
1:15 PM 84.2 °F 46.4 °F 27% 29.78 in 10.0 mi Calm Calm - N/A   Clear
1:35 PM 89.6 °F 46.4 °F 22% 29.77 in 10.0 mi NW 16.1 mph - N/A   Clear
1:55 PM 89.6 °F 46.4 °F 22% 29.77 in 10.0 mi NW 11.5 mph - N/A   Clear
2:15 PM 87.8 °F 46.4 °F 24% 29.76 in 10.0 mi WNW 11.5 mph 16.1 mph N/A   Clear
2:35 PM 89.6 °F 48.2 °F 24% 29.76 in 10.0 mi WNW 10.4 mph - N/A   Clear
2:55 PM 87.8 °F 46.4 °F 24% 29.75 in 10.0 mi WNW 12.7 mph - N/A   Clear
3:35 PM 86.0 °F 46.4 °F 25% 29.75 in 10.0 mi NW 11.5 mph - N/A   Clear
3:55 PM 87.8 °F 46.4 °F 24% 29.74 in 10.0 mi NNW 9.2 mph 19.6 mph N/A   Clear
4:15 PM 86.0 °F 46.4 °F 25% 29.73 in 10.0 mi NW 11.5 mph 16.1 mph N/A   Clear
4:35 PM 87.8 °F 46.4 °F 24% 29.73 in 10.0 mi NNW 15.0 mph 19.6 mph N/A   Clear
4:55 PM 87.8 °F 44.6 °F 22% 29.73 in 10.0 mi North 18.4 mph 23.0 mph N/A   Clear
5:15 PM 87.8 °F 46.4 °F 24% 29.73 in 10.0 mi NW 8.1 mph 16.1 mph N/A   Clear
5:35 PM 84.2 °F 46.4 °F 27% 29.73 in 10.0 mi NNW 10.4 mph - N/A   Clear
5:55 PM 84.2 °F 46.4 °F 27% 29.73 in 10.0 mi WNW 18.4 mph - N/A   Clear
6:15 PM 84.2 °F 44.6 °F 25% 29.74 in 10.0 mi NW 12.7 mph - N/A   Clear
6:35 PM 82.4 °F 44.6 °F 26% 29.74 in 10.0 mi NW 10.4 mph - N/A   Clear
6:55 PM 80.6 °F 41.0 °F 24% 29.74 in 10.0 mi NW 9.2 mph - N/A   Clear
7:55 PM 73.4 °F 39.2 °F 29% 29.76 in 10.0 mi NNW 6.9 mph - N/A   Clear
8:15 PM 73.4 °F 39.2 °F 29% 29.77 in 10.0 mi WNW 5.8 mph - N/A   Clear
8:35 PM 71.6 °F 39.2 °F 31% 29.78 in 10.0 mi West 3.5 mph - N/A   Clear
8:55 PM 68.0 °F 37.4 °F 33% 29.78 in 10.0 mi Calm Calm - N/A   Clear
9:15 PM 69.8 °F 39.2 °F 33% 29.79 in 10.0 mi West 5.8 mph - N/A   Clear
9:35 PM 68.0 °F 41.0 °F 37% 29.79 in 10.0 mi West 4.6 mph - N/A   Clear
9:55 PM 68.0 °F 39.2 °F 35% 29.79 in 10.0 mi NW 8.1 mph - N/A   Clear
10:15 PM 66.2 °F 39.2 °F 37% 29.79 in 10.0 mi NW 8.1 mph - N/A   Clear
10:35 PM 71.6 °F 42.8 °F 35% 29.80 in 10.0 mi NW 9.2 mph - N/A   Clear
10:55 PM 71.6 °F 44.6 °F 38% 29.80 in 10.0 mi NW 10.4 mph - N/A   Clear
11:15 PM 71.6 °F 44.6 °F 38% 29.80 in 10.0 mi WNW 17.3 mph - N/A   Clear
11:35 PM 71.6 °F 44.6 °F 38% 29.80 in 10.0 mi NW 15.0 mph - N/A   Clear
11:55 PM 69.8 °F 44.6 °F 40% 29.81 in 10.0 mi NNW 12.7 mph - N/A   Clear